Charlottetown, Prince Edward Island

5:42 AM AST on February 21, 2018 (GMT -0400)
Charlottetown

Weather History for CYYG - August, 2012

Change the Weather History Date:

Wednesday, August 29, 2012

  Actual Average Record
Temperature  
Mean Temperature 60 °F -  
Max Temperature 67 °F 64 °F 78 °F (2005)
Min Temperature 53 °F 48 °F 46 °F (2002)
Degree Days  
Heating Degree Days 5    
Growing Degree Days 10 (Base 50)    
Moisture  
Dew Point 49 °F    
Average Humidity 65    
Maximum Humidity 94    
Minimum Humidity 39    
Precipitation  
Precipitation 0.04 in 0.12 in - ()
Sea Level Pressure  
Sea Level Pressure 29.65 in    
Wind  
Wind Speed 9 mph ()    
Max Wind Speed 15 mph    
Max Gust Speed 24 mph    
Visibility 14.5 miles    
Events Rain    
Averages and records for this station are not official NWS values.
T = Trace of Precipitation, MM = Missing Value Source: Averaged Metar Reports

Daily Weather History Graph

Daily Weather History Graph

Search for Another Location

Airport or City:

Trip Planner

Search our weather history database for the weather conditions in past years. The results will help you decide how hot, cold, wet, or windy it might be!

Date:

Astronomy

Aug. 29, 2012 Rise Set
Actual Time 6:29 AM ADT 7:56 PM ADT
Civil Twilight 5:58 AM ADT 8:27 PM ADT
Nautical Twilight 5:20 AM ADT 9:05 PM ADT
Astronomical Twilight 4:39 AM ADT 9:45 PM ADT
Moon 6:36 PM ADT (8/29) 4:15 AM ADT (8/29)
Length of Visible Light 14h 28m
Length of Day
13h 26m
Waxing Gibbous, 96% of the Moon is Illuminated
Aug 29
Waxing Gibbous
Aug 31
Full
Sep 8
Last Quarter
Sep 15
New
Sep 22
First Quarter

Hourly Weather History & Observations

Time (ADT) Temp. Dew Point Humidity Pressure Visibility Wind Dir Wind Speed Gust Speed Precip Events Conditions
12:00 AM 60.8 °F 53.6 °F 77% 29.61 in 15.0 mi NW 9.2 mph - N/A   Overcast
1:00 AM 60.8 °F 51.8 °F 72% 29.62 in 15.0 mi WNW 10.4 mph - N/A   Mostly Cloudy
2:00 AM 59.0 °F 50.0 °F 72% 29.62 in 15.0 mi WNW 10.4 mph - N/A   Mostly Cloudy
3:00 AM 60 °F 49 °F 59% 29.62 in 15 mi West 6.9 mph - -   Partly Cloudy
3:00 AM 59.0 °F 50.0 °F 72% 29.62 in 15.0 mi West 6.9 mph - N/A   Mostly Cloudy
4:00 AM 55.4 °F 48.2 °F 77% 29.62 in 15.0 mi West 6.9 mph - N/A   Scattered Clouds
5:00 AM 55.4 °F 48.2 °F 77% 29.62 in 15.0 mi West 9.2 mph - N/A   Partly Cloudy
6:00 AM 53.6 °F 48.2 °F 82% 29.62 in 15.0 mi West 9.2 mph - N/A   Partly Cloudy
7:00 AM 53.6 °F 48.2 °F 82% 29.64 in 15.0 mi West 10.4 mph - N/A   Partly Cloudy
8:00 AM 57.2 °F 50.0 °F 77% 29.65 in 15.0 mi WNW 9.2 mph - N/A   Partly Cloudy
9:00 AM 60 °F 50 °F 60% 29.66 in 15 mi WNW 11.5 mph - -   Scattered Clouds
9:00 AM 60.8 °F 50.0 °F 68% 29.66 in 15.0 mi WNW 11.5 mph 18.4 mph N/A   Partly Cloudy
10:00 AM 62.6 °F 50.0 °F 63% 29.66 in 15.0 mi WNW 11.5 mph 18.4 mph N/A   Partly Cloudy
11:00 AM 64.4 °F 50.0 °F 59% 29.67 in 15.0 mi WNW 9.2 mph 19.6 mph N/A   Mostly Cloudy
12:00 PM 62.6 °F 48.2 °F 59% 29.67 in 15.0 mi West 9.2 mph - N/A   Mostly Cloudy
1:00 PM 62.6 °F 46.4 °F 55% 29.67 in 15.0 mi WNW 12.7 mph 20.7 mph N/A   Mostly Cloudy
2:00 PM 62.6 °F 44.6 °F 52% 29.66 in 15.0 mi West 13.8 mph 24.2 mph N/A   Mostly Cloudy
3:00 PM 63 °F 44 °F 39% 29.65 in 15 mi West 12.7 mph - -   Mostly Cloudy
3:00 PM 62.6 °F 44.6 °F 52% 29.65 in 15.0 mi WNW 11.5 mph 23.0 mph N/A   Mostly Cloudy
4:00 PM 66.2 °F 46.4 °F 49% 29.63 in 15.0 mi West 12.7 mph 20.7 mph N/A   Scattered Clouds
5:00 PM 66.2 °F 44.6 °F 46% 29.63 in 15.0 mi West 13.8 mph 24.2 mph N/A   Partly Cloudy
6:00 PM 66.2 °F 44.6 °F 46% 29.62 in 15.0 mi West 13.8 mph 24.2 mph N/A   Partly Cloudy
7:00 PM 66.2 °F 48.2 °F 52% 29.63 in 15.0 mi West 13.8 mph - N/A   Scattered Clouds
8:00 PM 64.4 °F 48.2 °F 56% 29.65 in 15.0 mi West 15.0 mph 20.7 mph N/A   Mostly Cloudy
9:00 PM 59 °F 50 °F 64% 29.69 in 15 mi WNW 4.6 mph - -   Scattered Clouds
9:00 PM 59.0 °F 50.0 °F 72% 29.69 in 15.0 mi West 3.5 mph - N/A   Partly Cloudy
9:40 PM 59.0 °F - N/A% - 10.0 mi NNW 6.9 mph - N/A Rain Light Rain Showers
10:00 PM 55.4 °F 53.6 °F 94% 29.71 in 6.0 mi NNW 8.1 mph - N/A Rain Heavy Rain Showers
10:09 PM 55.4 °F - N/A% - 15.0 mi North 4.6 mph - N/A   Mostly Cloudy
10:19 PM 55.4 °F - N/A% - 15.0 mi Calm Calm - N/A Rain Light Rain Showers
11:00 PM 57.2 °F 53.6 °F 88% 29.71 in 15.0 mi WSW 5.8 mph - N/A   Mostly Cloudy